Torna al catalogo

ATLAS 5 CENTAUR DEB

LostHEO
NORAD 49352·DEBRIS·🇺🇸 United States

Lanciato Oct 17, 2018 da Cape Canaveral Space Force Station

Loading…

Prossimi Passaggi (prossime 24 ore)

TLE

ObsoletoSource: Space-Track

Epoca: Jul 9, 2026, 01:22 UTC

1 49352U 18079FD  26190.05716732 -.00000121  00000-0  00000-0 0  9992
2 49352  12.5012  77.7056 4578460 230.5451  79.0256  1.68321044 29887

Traccia ATLAS 5 CENTAUR DEB in tempo reale con AllMySat

Download on the App Store